Regional Weather Roundup
Issued by NWS

Home | Current Version | Previous Version | Graphics & Text | Print | Product List | Glossary On
Versions: 1 2 3 4 5 6 7 8 9 10 11 12 13 14 15 16 17 18 19 20 21 22 23 24 25 26 27 28 29 30 31 32 33 34 35 36 37 38 39 40 41 42 43 44 45 46 47 48 49 50
000
ASUS43 KFSD 042110
RWRSD

WEATHER ROUNDUP FOR SOUTH DAKOTA
NATIONAL WEATHER SERVICE SIOUX FALLS SD
400 PM CDT FRI SEP 04 2015

NOTE: "FAIR" INDICATES FEW OR NO CLOUDS BELOW 12,000 FEET WITH NO
SIGNIFICANT WEATHER AND/OR OBSTRUCTIONS TO VISIBILITY.


SDZ001>005-009-010-012>017-042200-
NORTHWEST AND NORTH CENTRAL SOUTH DAKOTA

CITY           SKY/WX    TMP DP  RH WIND       PRES   REMARKS
BUFFALO          N/A     88  57  34 CALM      29.76F
FAITH            N/A     91  52  26 E7        29.78F
MOBRIDGE       FAIR      92  63  38 VRB3      29.73F
$$

SDZ012>016-024>037-041>051-057-063-072>074-042200-
SOUTHWEST AND SOUTH CENTRAL SOUTH DAKOTA

CITY           SKY/WX    TMP DP  RH WIND       PRES   REMARKS
RAPID CTY ARPT FAIR      89  55  31 N5        29.80F
PIERRE         FAIR      91  66  43 SE9       29.72S
CUSTER         FAIR      84  36  18 CALM      29.96F
PHILIP         FAIR      92  62  36 E7        29.75F
PINE RIDGE     FAIR      92  45  19 SW3       29.81F
WINNER         FAIR      92  59  33 SW3       29.76F
$$

SDZ004>011-016>023-039-040-042200-
NORTHEAST SOUTH DAKOTA

CITY           SKY/WX    TMP DP  RH WIND       PRES   REMARKS
ABERDEEN       FAIR      88  69  53 S10       29.77S
WATERTOWN      FAIR      83  67  58 SE16G22   29.84S
BROOKINGS      FAIR      79  66  65 SE20G29   29.86R
SISSETON         N/A     85  68  56 SE9       29.80F
$$

SDZ017-020-022-023-036>040-048>070-042200-
SOUTHEAST SOUTH DAKOTA

CITY           SKY/WX    TMP DP  RH WIND       PRES   REMARKS
SIOUX FALLS    PTSUNNY   82  71  69 SE16      29.85F
HURON          FAIR      88  69  53 SE15G22   29.74F
CHAMBERLAIN    FAIR      89  67  47 S10       29.74F
MITCHELL       FAIR      91  69  48 SE14G28   29.76F HX  96
YANKTON        FAIR      88  72  58 SE20      29.78F
$$

ABBREVIATIONS USED IN REMARKS
   TC - TEMPERATURE IN CELSIUS
  WCI - WIND CHILL INDEX
   HX - HEAT INDEX
  VSB - VISIBILITY




USA.gov is the U.S. government's official web portal to all federal, state and local government web resources and services.